Location: Bucquoy
(50.1391°N, 2.7097°E)
Time: 03:26:33
(UTC+00:00)

Cosmos 1400 Rocket - Pass Details

Date: 06 May 2021
Orbit: 520 x 568 km, 81.2° (Epoch: 22 June)

Event Time Altitude Azimuth Distance (km) Brightness Sun altitude
Rises 01:24:03 0° 349° (N) 2,782 7.3 -19.9°
Reaches altitude 10° 01:26:16 10° 352° (N) 1,878 6.3 -19.7°
Maximum altitude 01:30:25 68° 76° (ENE) 613 3.1 -19.4°
Enters shadow 01:32:11 32° 151° (SSE) 979 3.8 -19.3°
